Tracking 30995 objects as of 5-Jul-2025
HD Live streaming from Space Station
objects crossing your sky now

COSMOS 886 DEB

Track COSMOS 886 DEB now!
10-day predictions


NORAD ID: 9653
Int'l Code: 1976-126K
Perigee: 558.9 km
Apogee: 1,761.8 km
Inclination: 65.8 °
Period: 108.4 minutes
Semi major axis: 7531 km
RCS: 0.0715 m2 (small)
Launch date: December 27, 1976
Source: Commonwealth of Independent States (former USSR) (CIS)
Launch site: TYURATAM MISSILE AND SPACE COMPLEX (TTMTR)

Note: This is SATELLITE DEBRIS
Your satellite tracking list
STARLINK-4692
Track 1 satellite(s)




NASA's NSSDC Master Catalog

Two Line Element Set (TLE):
1 09653U 76126K   25186.61283135  .00000835  00000-0  33114-3 0  9997
2 09653  65.7657 266.8363 0798572 329.7027  26.0030 13.28300334297975
Source of the keplerian elements: AFSPC